This demonstration page uses our WeatherBlox Daily Observations layout. Learn more.

Left ArrowRight Arrow

53.62937, 11.41316

Hourly Observations for October 20, 2021

Temp ( °F °C ) Dew Point ( °F °C ) Humidity (%) Winds ( mph kmh ) Pressure ( in mb ) Visibility ( mi km ) Precip ( " mm )
7:50 am 07:50 Mostly Clear 57 14 54 12 88 88 S 10 17 29.65 1004 30 48 N/A
8:20 am 08:20 Mostly Sunny 57 14 54 12 88 88 S 12 19 29.62 1003 7 11 N/A
8:50 am 08:50 Mostly Sunny 57 14 52 11 82 82 S 12 19 29.62 1003 7 11 N/A
9:20 am 09:20 Mostly Sunny 57 14 52 11 82 82 S 12 19 29.62 1003 7 11 N/A
9:50 am 09:50 Mostly Sunny 59 15 52 11 77 77 S 13 20 29.59 1002 7 11 N/A
10:20 am 10:20 Mostly Sunny 59 15 52 11 77 77 S 13 20 29.59 1002 7 11 N/A
10:50 am 10:50 Mostly Sunny 59 15 52 11 77 77 S 13 20 29.56 1001 7 11 N/A
11:20 am 11:20 Mostly Sunny 61 16 54 12 77 77 S 14 22 29.56 1001 7 11 N/A
11:50 am 11:50 Mostly Sunny 61 16 52 11 72 72 S 15 24 29.53 1000 7 11 N/A
12:20 pm 12:20 Mostly Sunny 61 16 54 12 77 77 S 14 22 29.53 1000 7 11 N/A
12:50 pm 12:50 Mostly Sunny 63 17 54 12 73 73 S 16 26 29.50 999 30 48 N/A
1:20 pm 13:20 Partly Cloudy with Light Rain 63 17 54 12 73 73 S 14 22 29.53 1000 30 48 N/A
1:50 pm 13:50 Mostly Cloudy 63 17 54 12 73 73 S 12 19 29.50 999 30 48 N/A
2:20 pm 14:20 Mostly Cloudy 63 17 54 12 73 73 S 17 28 29.50 999 30 48 N/A
2:50 pm 14:50 Mostly Cloudy 63 17 54 12 73 73 S 17 28 29.50 999 30 48 N/A
3:20 pm 15:20 Mostly Cloudy 61 16 55 13 83 83 S 12 19 29.47 998 30 48 N/A
3:50 pm 15:50 Mostly Cloudy 63 17 55 13 77 77 S 12 19 29.47 998 30 48 N/A
4:20 pm 16:20 Mostly Cloudy 61 16 57 14 88 88 S 15 24 29.47 998 30 48 N/A
4:50 pm 16:50 Mostly Cloudy 63 17 55 13 77 77 SSW 17 28 29.44 997 30 48 N/A
5:20 pm 17:20 Mostly Cloudy 64 18 55 13 73 73 SSW 18 30 29.44 997 30 48 N/A
5:50 pm 17:50 Partly Cloudy 63 17 55 13 77 77 S 17 28 29.44 997 30 48 N/A
6:20 pm 18:20 Partly Cloudy 63 17 54 12 73 73 S 16 26 29.44 997 30 48 N/A
6:50 pm 18:50 Mostly Clear 63 17 54 12 73 73 S 17 28 29.44 997 30 48 N/A
7:20 pm 19:20 Partly Cloudy 63 17 54 12 73 73 S 16 26 29.44 997 30 48 N/A
7:50 pm 19:50 Partly Cloudy 63 17 54 12 73 73 S 15 24 29.41 996 30 48 N/A
8:20 pm 20:20 Partly Cloudy 63 17 54 12 73 73 S 16 26 29.41 996 30 48 N/A
8:50 pm 20:50 Partly Cloudy 61 16 54 12 77 77 S 15 24 29.41 996 30 48 N/A
9:20 pm 21:20 Mostly Clear 61 16 54 12 77 77 S 15 24 29.41 996 30 48 N/A
9:50 pm 21:50 Mostly Clear 61 16 54 12 77 77 S 15 24 29.38 995 30 48 N/A
10:20 pm 22:20 Mostly Clear 61 16 54 12 77 77 S 14 22 29.38 995 30 48 N/A
10:50 pm 22:50 Mostly Clear 59 15 54 12 82 82 S 15 24 29.38 995 30 48 N/A

Powered by AerisWeather